Location: Caltech
(34.1382°N, 118.1253°W)
Time: 19:49:05
(UTC-08:00)

Iridium 65 - Visible Passes

Search period start: 24 January 2015 00:00
Search period end: 03 February 2015 00:00
Orbit: 776 x 779 km, 86.4° (Epoch: 24 January)

Date Brightness Start Highest point End Pass type
(mag) Time Alt. Az. Time Alt. Az. Time Alt. Az.
24 Jan 6.4 19:03:55 10° NNW 19:08:56 48° W 19:13:55 10° SSW visible
25 Jan 7.3 06:16:26 10° SSE 06:21:05 35° E 06:25:50 10° NNE visible
25 Jan 5.4 18:30:15 10° N 18:35:29 86° E 18:40:42 10° S visible
26 Jan 8.3 05:44:20 10° SE 05:47:45 19° E 05:51:22 10° NE visible
26 Jan 5.8 17:56:57 10° NNE 18:01:54 44° E 18:06:52 10° SSE visible
26 Jan 8.3 19:38:56 10° NW 19:42:19 17° W 19:45:27 10° WSW visible
27 Jan 7.3 19:04:20 10° NNW 19:08:59 32° W 19:13:31 10° SSW visible
28 Jan 6.5 06:16:06 10° SSE 06:21:09 53° E 06:26:13 10° NNE visible
28 Jan 6.0 18:30:24 10° N 18:35:34 64° W 18:40:42 10° S visible
29 Jan 7.8 05:43:28 10° SE 05:47:45 27° E 05:52:10 10° NNE visible
29 Jan 5.5 17:56:53 10° N 18:02:04 66° E 18:07:15 10° S visible
29 Jan 8.7 19:40:45 10° WNW 19:42:17 11° W 19:43:27 10° W visible
30 Jan 8.5 05:11:54 10° ESE 05:14:25 14° E 05:17:15 10° NE visible
30 Jan 8.0 19:04:59 10° NNW 19:08:59 22° W 19:12:50 10° SW visible
31 Jan 5.7 06:16:01 10° S 06:21:13 81° E 06:26:27 10° N visible
31 Jan 6.9 18:30:43 10° NNW 18:35:37 42° W 18:40:29 10° SSW visible
01 Feb 7.0 05:42:57 10° SSE 05:47:46 41° E 05:52:39 10° NNE visible
01 Feb 5.7 17:56:57 10° N 18:02:11 83° W 18:07:24 10° S visible
02 Feb 8.1 05:10:38 10° SE 05:14:24 21° E 05:18:21 10° NE visible
02 Feb 8.5 19:06:02 10° NW 19:08:59 15° W 19:11:38 10° WSW visible
